This demonstration page uses our WeatherBlox Daily Observations layout. Learn more.

Hourly Observations for July 5, 2020

Temp ( °F °C ) Dew Point ( °F °C ) Humidity (%) Winds ( mph kmh ) Pressure ( in mb ) Visibility ( mi km ) Precip ( " mm )
12:15 am 00:15 Clear 71 21.8 65 18.3 81 81 SSE 7 11 29.95 1014 10 16.0934 0 0
12:35 am 00:35 Clear 70 21.2 64 17.9 82 82 SSE 8 13 29.95 1014 10 16.0934 0 0
12:55 am 00:55 Clear 69 20.8 64 17.7 83 83 SSE 7 11 29.96 1014 10 16.0934 0 0
1:15 am 01:15 Clear 71 21.6 64 17.8 79 79 SSE 8 13 29.94 1014 10 16.0934 0 0
1:35 am 01:35 Clear 71 21.6 64 18 80 80 SE 7 11 29.94 1014 10 16.0934 0 0
1:55 am 01:55 Clear 70 21 64 17.8 82 82 ESE 6 9 29.93 1014 10 16.0934 0 0
2:15 am 02:15 Clear 69 20.5 64 17.6 84 84 SE 6 9 29.94 1014 10 16.0934 0 0
2:35 am 02:35 Clear 68 20.2 64 17.5 85 85 SE 6 9 29.95 1014 10 16.0934 0 0
2:55 am 02:55 Clear 68 19.9 63 17.3 85 85 SSE 3 6 29.95 1014 10 16.0934 0 0
3:15 am 03:15 Clear 65 18.6 62 16.9 90 90 SSE 3 6 29.96 1015 10 16.0934 0 0
3:35 am 03:35 Clear 65 18.3 63 17 92 92 Calm 29.98 1015 7 11.26538 0 0
3:55 am 03:55 Partly Cloudy 64 17.7 62 16.6 93 93 ENE 5 7 29.99 1016 7 11.26538 0 0
4:15 am 04:15 Partly Cloudy 64 17.9 62 16.5 92 92 ESE 6 9 29.98 1015 7 11.26538 0 0
4:35 am 04:35 Clear 67 19.4 63 17.2 87 87 SE 6 9 29.96 1014 10 16.0934 0 0
4:55 am 04:55 Clear 67 19.2 63 17.2 88 88 SE 3 6 29.97 1015 10 16.0934 0 0
5:15 am 05:15 Clear with Mist and Fog 64 17.7 62 16.6 93 93 Calm 29.98 1015 5 8.0467 0 0
5:35 am 05:35 Clear with Mist and Fog 63 17.2 62 16.5 96 96 ENE 3 6 29.99 1015 5 8.0467 0 0
5:55 am 05:55 Clear with Mist and Fog 63 17.1 62 16.5 96 96 E 3 6 29.99 1015 4 6.43736 0 0
6:15 am 06:15 Partly Cloudy with Mist and Fog 63 17.1 62 16.5 96 96 Calm 29.99 1015 3 4.82802 0 0
6:35 am 06:35 Mostly Cloudy with Mist and Fog 63 17 62 16.4 96 96 WNW 5 7 29.99 1016 2.5 4.02335 0 0
6:55 am 06:55 Mostly Cloudy with Mist and Fog 63 17.3 62 16.6 96 96 Calm 29.99 1015 2.5 4.02335 0 0
7:15 am 07:15 Partly Cloudy with Mist and Fog 64 17.5 62 16.7 95 95 Calm 29.98 1015 2.5 4.02335 0 0
7:35 am 07:35 Sunny with Mist and Fog 65 18.5 63 17.4 93 93 Calm 29.98 1015 4 6.43736 0 0
7:55 am 07:55 Partly Cloudy with Mist and Fog 66 18.7 64 17.8 95 95 Calm 29.98 1015 3 4.82802 0 0
8:15 am 08:15 Mostly Cloudy with Mist and Fog 70 20.9 66 19 89 89 Calm 29.96 1015 5 8.0467 0 0
8:35 am 08:35 Mostly Cloudy 73 22.9 68 20 84 84 S 5 7 29.95 1014 7 11.26538 0 0
8:55 am 08:55 Partly Cloudy 75 23.7 69 20.5 82 82 S 5 7 29.94 1014 10 16.0934 0 0
9:15 am 09:15 Sunny 76 24.6 69 20.7 79 79 SSW 7 11 29.93 1014 10 16.0934 0 0
9:35 am 09:35 Sunny 77 25.1 69 20.7 77 77 S 6 9 29.92 1013 10 16.0934 0 0
9:55 am 09:55 Sunny 78 25.8 69 20.6 73 73 S 12 19 29.91 1013 10 16.0934 0 0
10:15 am 10:15 Sunny 80 26.5 69 20.3 69 69 S 10 17 29.91 1013 10 16.0934 0 0
10:35 am 10:35 Partly Cloudy 81 27.2 68 20 65 65 S 10 17 29.9 1013 10 16.0934 0 0
10:55 am 10:55 Mostly Cloudy 81 27.3 67 19.7 63 63 SSE 8 13 29.91 1013 10 16.0934 0 0
11:15 am 11:15 Mostly Cloudy 82 27.6 68 19.9 63 63 S 7 11 29.9 1012 10 16.0934 0 0
11:35 am 11:35 Mostly Cloudy 83 28.1 66 18.9 57 57 S 9 15 29.89 1012 10 16.0934 0 0
11:55 am 11:55 Partly Cloudy 83 28.4 65 18.5 55 55 S 7 11 29.89 1012 10 16.0934 0 0
12:15 pm 12:15 Partly Cloudy 85 29.2 65 18.5 53 53 SSE 9 15 29.89 1012 10 16.0934 0 0
12:35 pm 12:35 Partly Cloudy 84 28.7 65 18.3 53 53 S 7 11 29.89 1012 10 16.0934 0 0
12:55 pm 12:55 Sunny 86 30.1 65 18.5 50 50 SSW 6 9 29.88 1012 10 16.0934 0 0
1:15 pm 13:15 Sunny 84 29.1 64 17.8 51 51 SSE 9 15 29.88 1012 10 16.0934 0 0
1:35 pm 13:35 Partly Cloudy 87 30.4 65 18.5 49 49 SSE 10 17 29.87 1011 10 16.0934 0 0
1:55 pm 13:55 Sunny 86 30.2 65 18.3 49 49 SE 9 15 29.87 1011 10 16.0934 0 0
2:15 pm 14:15 Mostly Cloudy 86 30.2 64 17.5 47 47 ESE 9 15 29.87 1011 10 16.0934 0 0
2:35 pm 14:35 Partly Cloudy 85 29.5 64 17.5 48 48 ESE 7 11 29.87 1012 10 16.0934 0 0
2:55 pm 14:55 Partly Cloudy 85 29.6 64 17.5 48 48 SSE 8 13 29.86 1011 10 16.0934 0 0
3:15 pm 15:15 Partly Cloudy 85 29.3 63 17 47 47 S 5 7 29.85 1011 10 16.0934 0 0
3:35 pm 15:35 Sunny 85 29.6 62 16.9 46 46 SE 3 6 29.85 1011 10 16.0934 0 0
3:55 pm 15:55 Sunny 87 30.4 62 16.9 44 44 SE 8 13 29.85 1011 10 16.0934 0 0
4:15 pm 16:15 Sunny 87 30.4 61 16.2 42 42 ESE 6 9 29.85 1011 10 16.0934 0 0
4:35 pm 16:35 Sunny 87 30.4 62 16.4 43 43 SSW 5 7 29.83 1010 10 16.0934 0 0
4:55 pm 16:55 Sunny 87 30.8 62 16.7 43 43 SSE 6 9 29.82 1010 10 16.0934 0 0
5:15 pm 17:15 Sunny 85 29.7 61 15.9 43 43 E 5 7 29.83 1010 10 16.0934 0 0
5:35 pm 17:35 Sunny 86 29.8 62 16.5 45 45 SE 7 11 29.82 1010 10 16.0934 0 0
5:55 pm 17:55 Sunny 86 29.8 61 15.9 43 43 SE 9 15 29.82 1010 10 16.0934 0 0
6:15 pm 18:15 Sunny 85 29.3 62 16.4 46 46 SSE 10 17 29.81 1010 10 16.0934 0 0
6:35 pm 18:35 Sunny 85 29.6 58 14.3 39 39 SSE 8 13 29.8 1009 10 16.0934 0 0
6:55 pm 18:55 Sunny 86 30.1 59 14.8 39 39 SSE 10 17 29.8 1009 10 16.0934 0 0
7:15 pm 19:15 Sunny 85 29.6 61 16.2 44 44 SSE 10 17 29.8 1009 10 16.0934 0 0
7:35 pm 19:35 Sunny 84 28.7 62 16.8 49 49 SSE 10 17 29.81 1009 10 16.0934 0 0
7:55 pm 19:55 Sunny 83 28.5 63 17.2 50 50 SSE 8 13 29.81 1010 10 16.0934 0 0
8:15 pm 20:15 Sunny 83 28.5 63 17.2 50 50 SE 9 15 29.81 1010 10 16.0934 0 0
8:35 pm 20:35 Sunny 82 27.7 64 17.7 55 55 SE 7 11 29.82 1010 10 16.0934 0 0
8:55 pm 20:55 Sunny 81 27 64 18 58 58 SE 5 7 29.83 1010 10 16.0934 0 0
9:15 pm 21:15 Clear 79 26 65 18.5 63 63 SE 5 7 29.84 1011 10 16.0934 0 0
9:35 pm 21:35 Clear 78 25.4 65 18.5 66 66 SE 3 6 29.86 1011 10 16.0934 0 0
9:55 pm 21:55 Clear 74 23.3 66 19 77 77 Calm 29.89 1012 10 16.0934 0 0
10:15 pm 22:15 Clear 73 22.9 66 18.8 78 78 SE 5 7 29.9 1012 10 16.0934 0 0
10:35 pm 22:35 Clear 74 23.3 66 19 77 77 ESE 6 9 29.9 1013 10 16.0934 0 0
10:55 pm 22:55 Clear 69 20.5 65 18.2 87 87 E 3 6 29.94 1014 10 16.0934 0 0
11:15 pm 23:15 Clear 71 21.4 66 18.8 85 85 Calm 29.93 1014 10 16.0934 0 0
11:35 pm 23:35 Clear 71 21.5 66 19 86 86 SE 3 6 29.93 1014 10 16.0934 0 0
11:55 pm 23:55 Clear 69 20.8 66 18.7 88 88 ESE 3 6 29.95 1014 10 16.0934 0 0

Powered by AerisWeather